METEOR 2-5 DEB, 38534

Orbit data source: Space-Track

METEOR 2-5 DEB, 38534 is space debris in LEO originally from a launch on Wed, 31 Oct 1979 UTC launched from the Plesetsk Missile And Space Complex (PKMTR). Debris objects in space refer to the collection of defunct objects orbiting the Earth. Examples of debris include non-operational satellites, rocket bodies, and fragments generated from explosions, collisions, or faulty payload assembly.

Loading next visibility...
Identifier
38534, 1979-095CB
Orbit
LEO
Country
Flag of CISCIS
Related business
Manufacturer
Unknown
Mission
Spacecraft
Bus & Motor
Unknown
Mass
Unknown
Launch date (UTC)
1979-10-31 (46 years ago)
Launch vehicle
Unknown
Launch site
Plesetsk Missile And Space Complex (PKMTR)
Object type
Payload
Rocket body
Debris
Shape & HBR
Unknown shape, 0.1 m
Radar Cross Section
Small (<0.1 m²)

Expand to show TLE details & history
Last TLE update: 1 day ago

TLE from 1 day ago
0 METEOR 2-5 DEB
1 38534U 79095CB  25292.94533934  .00014515  00000-0  47712-2 0  9992
2 38534  81.2217   9.6376 0017699 290.6134  69.3153 14.38098619582274
Epoch: 2025-10-19T22:41Z
TLE epoch observation values (Epoch: 2025-10-19T22:41:17.318Z)
Latitude
-0.00012°
Longitude
0.6607°
Altitude
763.278 km
Speed
7.475 km/s
True Right ascension
00h 38m 33s
True Declination
0° 00' 00"
Sunlit
Object was in full shadow at epoch
Visualization orbit readout
Latitude
Unknown
Longitude
Unknown
Altitude
Unknown
Speed
Unknown
Apparent Right ascension
Unknown
Apparent Declination
Unknown
Sunlit
N/A
Visualization observer readout
Local Sidereal Time
01:14:29
Azimuth
Unknown
Elevation
Unknown
Doppler factor
Unknown
Orbital elements
Apogee altitude
774.562 km
Perigee altitude
749.288 km
Semi-major axis
7,140.062 km
Eccentricity
0.00177
Inclination
81.2217°
RAAN
9.6376°
Arg. of periapsis
290.6134°
True anomaly
69.50519°
Mean anomaly
69.3153°
Eccentric anomaly
69.41023°
Mean motion
3.59741 °/min
Orbital period
100.07 mins
BSTAR
0.0047712
Loading maneuver chart data...
Computing Atmospheric mass density...
Loading historical data...
Loading historical data...
Loading historical data...
Loading historical data...
Loading historical data...
Loading historical data...
Loading historical data...

Documentation

Showing up to 5 results
|